Location: ??????
(55.2000°N, 38.3000°E)
Time: 00:36:10
(UTC+00:00)

NOSS 3-1 (A) - Pass Details

Date: 15 November 2025
Orbit: 621 x 1586 km, 63.4° (Epoch: 02 December)

Event Time Altitude Azimuth Distance (km) Brightness Sun altitude
Exits shadow 01:50:23 63° 180° (S) 868 3.1 -26.6°
Maximum altitude 01:51:01 71° 134° (SE) 842 3.2 -26.5°
Drops below altitude 10° 01:57:04 10° 52° (NE) 2,676 6.5 -25.7°
Sets 01:59:57 0° 51° (NE) 3,784 7.4 -25.3°
